Location: Bodest
(46.3000°N, 22.5667°E)
Time: 13:13:49
(UTC+00:00)

Cosmos 1844 Rocket - Pass Details

Date: 06 June 2022
Orbit: 826 x 843 km, 71.0° (Epoch: 28 June)

Event Time Altitude Azimuth Distance (km) Brightness Sun altitude
Rises 19:09:39 0° 331° (NNW) 3,379 7.6 -7.6°
Reaches altitude 10° 19:12:06 10° 329° (NNW) 2,440 6.6 -7.9°
Maximum altitude 19:17:40 70° 247° (WSW) 879 2.9 -8.6°
Drops below altitude 10° 19:23:10 10° 165° (SSE) 2,421 4.5 -9.3°
Enters shadow 19:23:35 - 165° (SSE) 2,576 4.7 -9.3°
